STARLINK-1906

Last updated on Tue Nov 24 2020 00:02:02 GMT+0000 (Coordinated Universal Time)

1 46765U 20074AC 20328.58334491 -.01086350 00000-0 -19588-1 0 9990 2 46765 53.0554 13.6226 0001149 67.1035 247.7795 15.51997858 1852

Satellite not in orbit